User: anonymous   Login
Location: Unspecified
(0.0000°N, 0.0000°E)
Time: 04:11:14
(UTC+00:00)
Language:

TISAT 1 - Orbit

View from above orbital plane
View from above orbital plane
View from above satellite
View from above satellite

Ground track
Ground track

The orbit data is extracted from the following two-line orbital elements,

1 36799U 10035E   18022.86466992  .00000335  00000-0  40275-4 0  9999
2 36799  98.0851 155.4421 0011548 330.8188  29.2383 14.90674212408509
Epoch (UTC): 22 January 2018 20:45:07
Eccentricity: 0.0011548
inclination: 98.0851°
perigee height: 588 km
apogee height: 604 km
right ascension of ascending node: 155.4421°
argument of perigee: 330.8188°
revolutions per day: 14.90674212
mean anomaly at epoch: 29.2383°
orbit number at epoch: 40850

The dashed part of the orbit path shows where the satellite is in the earth's shadow,  

DLR